Jack Brusco — WDC3066 — position and weather

sailwx.info

Track history (hours):
 
Tides and Currents Weather Stations Pressure Air Temp Water Temp Dewpoint Dewpoint Depression Visibility Wind Speed Wind Dir Waves Ship Positions

Jack Brusco

Owner: Brusco Tug & Barge, Inc., Longview, WA. More information available from US FCC via Universal Licensing System and Coast Guard Vessel Documentation Center.

Last reported at 2016-Jun-25 14:27 UTC. Time now 2016-Jun-27 05:58 UTC.
Position N 45°37' W 124°04'.

Length 36 m; draft 5.2 m.

Type: Tug. MMSI: 3699086.

Date/timePositionNaut miles runAvg speedWind from/ knotsBaromVisibWave heightAir tempDewpointWater temp
2016-Jun-25 14:27N 45°37' W 124°04'8 9.3
2016-Jun-25 13:34N 45°45' W 124°06'9 9.3
2016-Jun-25 12:33N 45°54' W 124°07'9 9.1
2016-Jun-25 11:33N 46°03' W 124°09'8 8.1
2016-Jun-25 10:34N 46°11' W 124°10'7 7.0
2016-Jun-25 09:33N 46°15' W 124°02'6 5.9
2016-Jun-25 08:34N 46°12' W 123°55'7 6.9
2016-Jun-25 07:34N 46°13' W 123°46'8 8.3
2016-Jun-25 06:33N 46°15' W 123°34'7 6.7
2016-Jun-25 05:33N 46°12' W 123°26'8 8.2
2016-Jun-25 04:33N 46°10' W 123°14'9 9.0
2016-Jun-25 03:33N 46°08' W 123°01'9 8.7
2016-Jun-25 02:34N 46°02' W 122°53'9 9.1
2016-Jun-25 01:33N 45°54' W 122°48'1010.1
2016-Jun-25 00:33N 45°44' W 122°46'8 8.1
2016-Jun-24 23:33N 45°35' W 122°46'3 3.2
2016-Jun-24 22:33N 45°33' W 122°43'0 0.0
2016-Jun-24 21:33N 45°33' W 122°43'0 0.0
2016-Jun-24 20:33N 45°33' W 122°43'3 3.1
2016-Jun-24 19:34N 45°35' W 122°46'9 8.6
2016-Jun-24 18:33N 45°44' W 122°46'1110.5
2016-Jun-24 17:33N 45°54' W 122°49'1010.5
2016-Jun-24 16:33N 46°04' W 122°53'1110.8
2016-Jun-24 15:33N 46°11' W 123°06'1010.3
2016-Jun-24 14:33N 46°09' W 123°21'4 3.9
2016-Jun-24 13:34N 46°12' W 123°23'0 0.0
2016-Jun-24 12:30N 46°12' W 123°23'0 0.0
2016-Jun-24 11:33N 46°12' W 123°23'0 0.0
2016-Jun-24 10:07N 46°12' W 123°23'0 0.0
2016-Jun-24 09:29N 46°12' W 123°23'0 0.0
2016-Jun-24 08:33N 46°12' W 123°23'0 0.0
2016-Jun-24 07:34N 46°12' W 123°23'0 0.0
2016-Jun-24 04:33N 46°12' W 123°23'0 0.0
2016-Jun-24 03:34N 46°12' W 123°23'8 8.5
2016-Jun-24 02:34N 46°15' W 123°35'1110.7
2016-Jun-24 01:33N 46°12' W 123°49'1 0.9
2016-Jun-24 00:34N 46°12' W 123°50'0 0.0
2016-Jun-23 23:34N 46°12' W 123°50'0 0.0
2016-Jun-23 22:34N 46°12' W 123°50'0 0.0
2016-Jun-23 21:34N 46°12' W 123°50'1 1.3
2016-Jun-23 20:34N 46°12' W 123°48'1212.0
2016-Jun-23 19:33N 46°16' W 123°32'7 6.8
2016-Jun-23 18:31N 46°12' W 123°23'0 0.0
2016-Jun-23 17:31N 46°12' W 123°23'0 0.0
2016-Jun-23 16:32N 46°12' W 123°23'0 0.0
2016-Jun-23 15:31N 46°12' W 123°23'0 0.0
2016-Jun-23 14:31N 46°12' W 123°23'0 0.0
2016-Jun-23 13:31N 46°12' W 123°23'0 0.0
2016-Jun-23 12:31N 46°12' W 123°23'0 0.0
2016-Jun-23 11:31N 46°12' W 123°23'0 0.0
2016-Jun-23 10:31N 46°12' W 123°23'0 0.0
2016-Jun-23 09:33N 46°12' W 123°23'0 0.0
2016-Jun-23 08:31N 46°12' W 123°23'0 0.0
2016-Jun-23 07:25N 46°12' W 123°23'0 0.0
2016-Jun-23 05:31N 46°12' W 123°23'0 0.0
2016-Jun-23 04:32N 46°12' W 123°23'0 0.0
2016-Jun-23 03:31N 46°12' W 123°23'0 0.0
2016-Jun-23 02:31N 46°12' W 123°23'0 0.0
2016-Jun-23 01:31N 46°12' W 123°23'0 0.0
2016-Jun-23 00:31N 46°12' W 123°23'0 0.0
2016-Jun-22 23:33N 46°12' W 123°23'0 0.0
2016-Jun-22 22:30N 46°12' W 123°23'0 0.0
2016-Jun-22 21:31N 46°12' W 123°23'0 0.0
2016-Jun-22 20:30N 46°12' W 123°23'0 0.0
2016-Jun-22 19:31N 46°12' W 123°23'0 0.0
2016-Jun-22 18:31N 46°12' W 123°23'0 0.0
2016-Jun-22 17:28N 46°12' W 123°23'0 0.0
2016-Jun-22 16:25N 46°12' W 123°23'0 0.0
2016-Jun-22 15:31N 46°12' W 123°23'0 0.0
2016-Jun-22 14:31N 46°12' W 123°23'0 0.0
2016-Jun-22 13:31N 46°12' W 123°23'0 0.0
2016-Jun-22 12:31N 46°12' W 123°23'0 0.0
2016-Jun-22 11:31N 46°12' W 123°23'0 0.0
2016-Jun-22 10:25N 46°12' W 123°23'0 0.0
2016-Jun-22 09:28N 46°12' W 123°23'0 0.0
2016-Jun-22 08:25N 46°12' W 123°23'0 0.0
2016-Jun-22 07:33N 46°12' W 123°23'0 0.0
2016-Jun-22 06:31N 46°12' W 123°23'0 0.0
2016-Jun-22 05:31N 46°12' W 123°23'0 0.0
2016-Jun-22 04:32N 46°12' W 123°23'0 0.0
2016-Jun-22 03:31N 46°12' W 123°23'0 0.0
2016-Jun-22 02:32N 46°12' W 123°23'0 0.0
2016-Jun-22 01:31N 46°12' W 123°23'0 0.0
2016-Jun-22 00:31N 46°12' W 123°23'0 0.0
2016-Jun-21 23:31N 46°12' W 123°23'0 0.0
2016-Jun-21 22:31N 46°12' W 123°23'0 0.0
2016-Jun-21 21:33N 46°12' W 123°23'0 0.0
2016-Jun-21 20:24N 46°12' W 123°23'0 0.0
2016-Jun-21 19:31N 46°12' W 123°23'0 0.0
2016-Jun-21 18:31N 46°12' W 123°23'0 0.0
2016-Jun-21 17:33N 46°12' W 123°23'0 0.0
2016-Jun-21 16:31N 46°12' W 123°23'0 0.0
2016-Jun-21 15:28N 46°12' W 123°23'0 0.0
2016-Jun-21 14:30N 46°12' W 123°23'0 0.0
2016-Jun-21 13:31N 46°12' W 123°23'0 0.0
2016-Jun-21 12:31N 46°12' W 123°23'0 0.0
2016-Jun-21 11:31N 46°12' W 123°23'0 0.0
2016-Jun-21 10:31N 46°12' W 123°23'0 0.0
2016-Jun-21 09:33N 46°12' W 123°23'0 0.0
2016-Jun-21 08:25N 46°12' W 123°23'0 0.0
2016-Jun-21 07:28N 46°12' W 123°23'0 0.0
2016-Jun-21 04:31N 46°12' W 123°23'0 0.0
2016-Jun-21 03:30N 46°12' W 123°23'0 0.0
2016-Jun-21 02:32N 46°12' W 123°23'0 0.0
2016-Jun-21 01:27N 46°12' W 123°23'0 0.0
2016-Jun-21 00:25N 46°12' W 123°23'0 0.0
2016-Jun-20 23:31N 46°12' W 123°23'0 0.0
2016-Jun-20 22:32N 46°12' W 123°23'0 0.0
2016-Jun-20 21:31N 46°12' W 123°23'0 0.0
2016-Jun-20 20:25N 46°12' W 123°23'0 0.0
2016-Jun-20 19:31N 46°12' W 123°23'0 0.0
2016-Jun-20 18:31N 46°12' W 123°23'0 0.0
2016-Jun-20 17:26N 46°12' W 123°23'0 0.0
2016-Jun-20 16:30N 46°12' W 123°23'0 0.0
2016-Jun-20 15:31N 46°12' W 123°23'0 0.0
2016-Jun-20 14:31N 46°12' W 123°23'0 0.0
2016-Jun-20 13:31N 46°12' W 123°23'0 0.0
2016-Jun-20 12:31N 46°12' W 123°23'0 0.0
2016-Jun-20 11:29N 46°12' W 123°23'0 0.0
2016-Jun-20 10:31N 46°12' W 123°23'0 0.0
2016-Jun-20 09:31N 46°12' W 123°23'0 0.0
2016-Jun-20 08:25N 46°12' W 123°23'0 0.0
2016-Jun-20 07:31N 46°12' W 123°23'0 0.0
2016-Jun-20 06:31N 46°12' W 123°23'0 0.0
2016-Jun-20 05:31N 46°12' W 123°23'0 0.0
2016-Jun-20 04:31N 46°12' W 123°23'0 0.0
2016-Jun-20 03:33N 46°12' W 123°23'0 0.0
2016-Jun-20 02:25N 46°12' W 123°23'0 0.0
2016-Jun-20 01:28N 46°12' W 123°23'0 0.0
2016-Jun-20 00:32N 46°12' W 123°23'0 0.0
2016-Jun-19 23:28N 46°12' W 123°23'0 0.0
2016-Jun-19 22:25N 46°12' W 123°23'0 0.0
2016-Jun-19 21:31N 46°12' W 123°23'0 0.0
2016-Jun-19 20:29N 46°12' W 123°23'0 0.0
2016-Jun-19 19:27N 46°12' W 123°23'0 0.0
2016-Jun-19 18:31N 46°12' W 123°23'0 0.0
2016-Jun-19 17:31N 46°12' W 123°23'0 0.0
2016-Jun-19 16:31N 46°12' W 123°23'0 0.0
2016-Jun-19 15:31N 46°12' W 123°23'0 0.0
2016-Jun-19 14:32N 46°12' W 123°23'0 0.0
2016-Jun-19 13:25N 46°12' W 123°23'0 0.0
2016-Jun-19 12:32N 46°12' W 123°23'0 0.0
2016-Jun-19 11:33N 46°12' W 123°23'0 0.0
2016-Jun-19 10:32N 46°12' W 123°23'0 0.0
2016-Jun-19 09:31N 46°12' W 123°23'0 0.0
2016-Jun-19 08:25N 46°12' W 123°23'0 0.0
2016-Jun-19 07:31N 46°12' W 123°23'0 0.0
2016-Jun-19 06:31N 46°12' W 123°23'0 0.0
2016-Jun-19 05:31N 46°12' W 123°23'0 0.0
2016-Jun-19 04:31N 46°12' W 123°23'0 0.0
2016-Jun-19 03:31N 46°12' W 123°23'0 0.0
2016-Jun-19 02:31N 46°12' W 123°23'0 0.0
2016-Jun-19 01:25N 46°12' W 123°23'0 0.0
2016-Jun-19 00:30N 46°12' W 123°23'0 0.0
2016-Jun-18 23:25N 46°12' W 123°23'0 0.0
2016-Jun-18 22:31N 46°12' W 123°23'0 0.0
2016-Jun-18 21:31N 46°12' W 123°23'0 0.0
2016-Jun-18 20:25N 46°12' W 123°23'0 0.0
2016-Jun-18 19:25N 46°12' W 123°23'0 0.0
2016-Jun-18 18:29N 46°12' W 123°23'0 0.0
2016-Jun-18 17:31N 46°12' W 123°23'0 0.0
2016-Jun-18 16:25N 46°12' W 123°23'0 0.0
2016-Jun-18 15:33N 46°12' W 123°23'0 0.0
2016-Jun-18 14:31N 46°12' W 123°23'0 0.0
2016-Jun-18 13:33N 46°12' W 123°23'0 0.0
2016-Jun-18 12:29N 46°12' W 123°23'0 0.0
2016-Jun-18 11:33N 46°12' W 123°23'0 0.0
2016-Jun-18 10:31N 46°12' W 123°23'0 0.0
2016-Jun-18 09:31N 46°12' W 123°23'0 0.0
2016-Jun-18 08:30N 46°12' W 123°23'0 0.0
2016-Jun-18 07:31N 46°12' W 123°23'0 0.0
2016-Jun-18 06:31N 46°12' W 123°23'0 0.0
2016-Jun-18 05:27N 46°12' W 123°23'0 0.0
2016-Jun-18 04:31N 46°12' W 123°23'0 0.0
2016-Jun-18 03:31N 46°12' W 123°23'0 0.0
2016-Jun-18 02:31N 46°12' W 123°23'0 0.0
2016-Jun-18 01:33N 46°12' W 123°23'0 0.0
2016-Jun-18 00:31N 46°12' W 123°23'0 0.0
2016-Jun-17 23:31N 46°12' W 123°23'0 0.0
2016-Jun-17 22:25N 46°12' W 123°23'0 0.0
2016-Jun-17 21:25N 46°12' W 123°23'0 0.0
2016-Jun-17 20:31N 46°12' W 123°23'0 0.0
2016-Jun-17 19:33N 46°12' W 123°23'0 0.0
2016-Jun-17 18:31N 46°12' W 123°23'0 0.0
2016-Jun-17 17:26N 46°12' W 123°23'0 0.0
2016-Jun-17 16:25N 46°12' W 123°23'0 0.0
2016-Jun-17 15:29N 46°12' W 123°23'0 0.0
2016-Jun-17 14:31N 46°12' W 123°23'0 0.0
2016-Jun-17 13:31N 46°12' W 123°23'0 0.0
2016-Jun-17 12:25N 46°12' W 123°23'0 0.0
2016-Jun-17 11:31N 46°12' W 123°23'0 0.0
2016-Jun-17 10:32N 46°12' W 123°23'0 0.0
2016-Jun-17 09:31N 46°12' W 123°23'0 0.0
2016-Jun-17 08:19N 46°12' W 123°23'0 0.0
2016-Jun-17 07:31N 46°12' W 123°23'0 0.0
2016-Jun-17 06:31N 46°12' W 123°23'0 0.0
2016-Jun-17 05:31N 46°12' W 123°23'0 0.0
2016-Jun-17 04:31N 46°12' W 123°23'0 0.0
2016-Jun-17 03:31N 46°12' W 123°23'0 0.0
2016-Jun-17 02:31N 46°12' W 123°23'0 0.0
2016-Jun-17 01:33N 46°12' W 123°23'0 0.0
2016-Jun-17 00:25N 46°12' W 123°23'0 0.0
2016-Jun-16 23:25N 46°12' W 123°23'0 0.0
2016-Jun-16 22:30N 46°12' W 123°23'0 0.0
2016-Jun-16 21:26N 46°12' W 123°23'0 0.0
2016-Jun-16 20:32N 46°12' W 123°23'0 0.0
2016-Jun-16 19:31N 46°12' W 123°23'0 0.0
2016-Jun-16 18:32N 46°12' W 123°23'0 0.0
2016-Jun-16 17:33N 46°12' W 123°23'0 0.0
2016-Jun-16 16:30N 46°12' W 123°23'0 0.0
2016-Jun-16 15:31N 46°12' W 123°23'0 0.0
2016-Jun-16 14:30N 46°12' W 123°23'0 0.0
2016-Jun-16 13:31N 46°12' W 123°23'0 0.0
2016-Jun-16 12:31N 46°12' W 123°23'0 0.0
2016-Jun-16 11:33N 46°12' W 123°23'0 0.0
2016-Jun-16 10:32N 46°12' W 123°23'0 0.0
2016-Jun-16 09:31N 46°12' W 123°23'0 0.0
2016-Jun-16 08:31N 46°12' W 123°23'0 0.0
2016-Jun-16 07:31N 46°12' W 123°23'0 0.0
2016-Jun-16 06:32N 46°12' W 123°23'0 0.0
2016-Jun-16 05:31N 46°12' W 123°23'0 0.0
2016-Jun-16 04:31N 46°12' W 123°23'0 0.0
2016-Jun-16 03:31N 46°12' W 123°23'0 0.0
2016-Jun-16 02:31N 46°12' W 123°23'0 0.0
2016-Jun-16 01:31N 46°12' W 123°23'0 0.0
2016-Jun-16 00:32N 46°12' W 123°23'0 0.0
2016-Jun-15 23:31N 46°12' W 123°23'0 0.0
2016-Jun-15 22:31N 46°12' W 123°23'0 0.0
2016-Jun-15 21:31N 46°12' W 123°23'0 0.0
2016-Jun-15 20:25N 46°12' W 123°23'0 0.0
2016-Jun-15 19:25N 46°12' W 123°23'0 0.0
2016-Jun-15 18:31N 46°12' W 123°23'0 0.0
2016-Jun-15 17:31N 46°12' W 123°23'0 0.0
2016-Jun-15 16:25N 46°12' W 123°23'0 0.0
2016-Jun-15 15:28N 46°12' W 123°23'0 0.0
2016-Jun-15 14:32N 46°12' W 123°23'  
Track history (hours):
 
Tides and Currents Weather Stations Pressure Air Temp Water Temp Dewpoint Dewpoint Depression Visibility Wind Speed Wind Dir Waves Ship Positions

Jack Brusco

Owner: Brusco Tug & Barge, Inc., Longview, WA. More information available from US FCC via Universal Licensing System and Coast Guard Vessel Documentation Center.

Last reported at 2016-Jun-25 14:27 UTC. Time now 2016-Jun-27 05:58 UTC.
Position N 45°37' W 124°04'.

Length 36 m; draft 5.2 m.

Type: Tug. MMSI: 3699086.

Date/timePositionNaut miles runAvg speedWind from/ knotsBaromVisibWave heightAir tempDewpointWater temp
2016-Jun-25 14:27N 45°37' W 124°04'8 9.3
2016-Jun-25 13:34N 45°45' W 124°06'9 9.3
2016-Jun-25 12:33N 45°54' W 124°07'9 9.1
2016-Jun-25 11:33N 46°03' W 124°09'8 8.1
2016-Jun-25 10:34N 46°11' W 124°10'7 7.0
2016-Jun-25 09:33N 46°15' W 124°02'6 5.9
2016-Jun-25 08:34N 46°12' W 123°55'7 6.9
2016-Jun-25 07:34N 46°13' W 123°46'8 8.3
2016-Jun-25 06:33N 46°15' W 123°34'7 6.7
2016-Jun-25 05:33N 46°12' W 123°26'8 8.2
2016-Jun-25 04:33N 46°10' W 123°14'9 9.0
2016-Jun-25 03:33N 46°08' W 123°01'9 8.7
2016-Jun-25 02:34N 46°02' W 122°53'9 9.1
2016-Jun-25 01:33N 45°54' W 122°48'1010.1
2016-Jun-25 00:33N 45°44' W 122°46'8 8.1
2016-Jun-24 23:33N 45°35' W 122°46'3 3.2
2016-Jun-24 22:33N 45°33' W 122°43'0 0.0
2016-Jun-24 21:33N 45°33' W 122°43'0 0.0
2016-Jun-24 20:33N 45°33' W 122°43'3 3.1
2016-Jun-24 19:34N 45°35' W 122°46'9 8.6
2016-Jun-24 18:33N 45°44' W 122°46'1110.5
2016-Jun-24 17:33N 45°54' W 122°49'1010.5
2016-Jun-24 16:33N 46°04' W 122°53'1110.8
2016-Jun-24 15:33N 46°11' W 123°06'1010.3
2016-Jun-24 14:33N 46°09' W 123°21'4 3.9
2016-Jun-24 13:34N 46°12' W 123°23'0 0.0
2016-Jun-24 12:30N 46°12' W 123°23'0 0.0
2016-Jun-24 11:33N 46°12' W 123°23'0 0.0
2016-Jun-24 10:07N 46°12' W 123°23'0 0.0
2016-Jun-24 09:29N 46°12' W 123°23'0 0.0
2016-Jun-24 08:33N 46°12' W 123°23'0 0.0
2016-Jun-24 07:34N 46°12' W 123°23'0 0.0
2016-Jun-24 04:33N 46°12' W 123°23'0 0.0
2016-Jun-24 03:34N 46°12' W 123°23'8 8.5
2016-Jun-24 02:34N 46°15' W 123°35'1110.7
2016-Jun-24 01:33N 46°12' W 123°49'1 0.9
2016-Jun-24 00:34N 46°12' W 123°50'0 0.0
2016-Jun-23 23:34N 46°12' W 123°50'0 0.0
2016-Jun-23 22:34N 46°12' W 123°50'0 0.0
2016-Jun-23 21:34N 46°12' W 123°50'1 1.3
2016-Jun-23 20:34N 46°12' W 123°48'1212.0
2016-Jun-23 19:33N 46°16' W 123°32'7 6.8
2016-Jun-23 18:31N 46°12' W 123°23'0 0.0
2016-Jun-23 17:31N 46°12' W 123°23'0 0.0
2016-Jun-23 16:32N 46°12' W 123°23'0 0.0
2016-Jun-23 15:31N 46°12' W 123°23'0 0.0
2016-Jun-23 14:31N 46°12' W 123°23'0 0.0
2016-Jun-23 13:31N 46°12' W 123°23'0 0.0
2016-Jun-23 12:31N 46°12' W 123°23'0 0.0
2016-Jun-23 11:31N 46°12' W 123°23'0 0.0
2016-Jun-23 10:31N 46°12' W 123°23'0 0.0
2016-Jun-23 09:33N 46°12' W 123°23'0 0.0
2016-Jun-23 08:31N 46°12' W 123°23'0 0.0
2016-Jun-23 07:25N 46°12' W 123°23'0 0.0
2016-Jun-23 05:31N 46°12' W 123°23'0 0.0
2016-Jun-23 04:32N 46°12' W 123°23'0 0.0
2016-Jun-23 03:31N 46°12' W 123°23'0 0.0
2016-Jun-23 02:31N 46°12' W 123°23'0 0.0
2016-Jun-23 01:31N 46°12' W 123°23'0 0.0
2016-Jun-23 00:31N 46°12' W 123°23'0 0.0
2016-Jun-22 23:33N 46°12' W 123°23'0 0.0
2016-Jun-22 22:30N 46°12' W 123°23'0 0.0
2016-Jun-22 21:31N 46°12' W 123°23'0 0.0
2016-Jun-22 20:30N 46°12' W 123°23'0 0.0
2016-Jun-22 19:31N 46°12' W 123°23'0 0.0
2016-Jun-22 18:31N 46°12' W 123°23'0 0.0
2016-Jun-22 17:28N 46°12' W 123°23'0 0.0
2016-Jun-22 16:25N 46°12' W 123°23'0 0.0
2016-Jun-22 15:31N 46°12' W 123°23'0 0.0
2016-Jun-22 14:31N 46°12' W 123°23'0 0.0
2016-Jun-22 13:31N 46°12' W 123°23'0 0.0
2016-Jun-22 12:31N 46°12' W 123°23'0 0.0
2016-Jun-22 11:31N 46°12' W 123°23'0 0.0
2016-Jun-22 10:25N 46°12' W 123°23'0 0.0
2016-Jun-22 09:28N 46°12' W 123°23'0 0.0
2016-Jun-22 08:25N 46°12' W 123°23'0 0.0
2016-Jun-22 07:33N 46°12' W 123°23'0 0.0
2016-Jun-22 06:31N 46°12' W 123°23'0 0.0
2016-Jun-22 05:31N 46°12' W 123°23'0 0.0
2016-Jun-22 04:32N 46°12' W 123°23'0 0.0
2016-Jun-22 03:31N 46°12' W 123°23'0 0.0
2016-Jun-22 02:32N 46°12' W 123°23'0 0.0
2016-Jun-22 01:31N 46°12' W 123°23'0 0.0
2016-Jun-22 00:31N 46°12' W 123°23'0 0.0
2016-Jun-21 23:31N 46°12' W 123°23'0 0.0
2016-Jun-21 22:31N 46°12' W 123°23'0 0.0
2016-Jun-21 21:33N 46°12' W 123°23'0 0.0
2016-Jun-21 20:24N 46°12' W 123°23'0 0.0
2016-Jun-21 19:31N 46°12' W 123°23'0 0.0
2016-Jun-21 18:31N 46°12' W 123°23'0 0.0
2016-Jun-21 17:33N 46°12' W 123°23'0 0.0
2016-Jun-21 16:31N 46°12' W 123°23'0 0.0
2016-Jun-21 15:28N 46°12' W 123°23'0 0.0
2016-Jun-21 14:30N 46°12' W 123°23'0 0.0
2016-Jun-21 13:31N 46°12' W 123°23'0 0.0
2016-Jun-21 12:31N 46°12' W 123°23'0 0.0
2016-Jun-21 11:31N 46°12' W 123°23'0 0.0
2016-Jun-21 10:31N 46°12' W 123°23'0 0.0
2016-Jun-21 09:33N 46°12' W 123°23'0 0.0
2016-Jun-21 08:25N 46°12' W 123°23'0 0.0
2016-Jun-21 07:28N 46°12' W 123°23'0 0.0
2016-Jun-21 04:31N 46°12' W 123°23'0 0.0
2016-Jun-21 03:30N 46°12' W 123°23'0 0.0
2016-Jun-21 02:32N 46°12' W 123°23'0 0.0
2016-Jun-21 01:27N 46°12' W 123°23'0 0.0
2016-Jun-21 00:25N 46°12' W 123°23'0 0.0
2016-Jun-20 23:31N 46°12' W 123°23'0 0.0
2016-Jun-20 22:32N 46°12' W 123°23'0 0.0
2016-Jun-20 21:31N 46°12' W 123°23'0 0.0
2016-Jun-20 20:25N 46°12' W 123°23'0 0.0
2016-Jun-20 19:31N 46°12' W 123°23'0 0.0
2016-Jun-20 18:31N 46°12' W 123°23'0 0.0
2016-Jun-20 17:26N 46°12' W 123°23'0 0.0
2016-Jun-20 16:30N 46°12' W 123°23'0 0.0
2016-Jun-20 15:31N 46°12' W 123°23'0 0.0
2016-Jun-20 14:31N 46°12' W 123°23'0 0.0
2016-Jun-20 13:31N 46°12' W 123°23'0 0.0
2016-Jun-20 12:31N 46°12' W 123°23'0 0.0
2016-Jun-20 11:29N 46°12' W 123°23'0 0.0
2016-Jun-20 10:31N 46°12' W 123°23'0 0.0
2016-Jun-20 09:31N 46°12' W 123°23'0 0.0
2016-Jun-20 08:25N 46°12' W 123°23'0 0.0
2016-Jun-20 07:31N 46°12' W 123°23'0 0.0
2016-Jun-20 06:31N 46°12' W 123°23'0 0.0
2016-Jun-20 05:31N 46°12' W 123°23'0 0.0
2016-Jun-20 04:31N 46°12' W 123°23'0 0.0
2016-Jun-20 03:33N 46°12' W 123°23'0 0.0
2016-Jun-20 02:25N 46°12' W 123°23'0 0.0
2016-Jun-20 01:28N 46°12' W 123°23'0 0.0
2016-Jun-20 00:32N 46°12' W 123°23'0 0.0
2016-Jun-19 23:28N 46°12' W 123°23'0 0.0
2016-Jun-19 22:25N 46°12' W 123°23'0 0.0
2016-Jun-19 21:31N 46°12' W 123°23'0 0.0
2016-Jun-19 20:29N 46°12' W 123°23'0 0.0
2016-Jun-19 19:27N 46°12' W 123°23'0 0.0
2016-Jun-19 18:31N 46°12' W 123°23'0 0.0
2016-Jun-19 17:31N 46°12' W 123°23'0 0.0
2016-Jun-19 16:31N 46°12' W 123°23'0 0.0
2016-Jun-19 15:31N 46°12' W 123°23'0 0.0
2016-Jun-19 14:32N 46°12' W 123°23'0 0.0
2016-Jun-19 13:25N 46°12' W 123°23'0 0.0
2016-Jun-19 12:32N 46°12' W 123°23'0 0.0
2016-Jun-19 11:33N 46°12' W 123°23'0 0.0
2016-Jun-19 10:32N 46°12' W 123°23'0 0.0
2016-Jun-19 09:31N 46°12' W 123°23'0 0.0
2016-Jun-19 08:25N 46°12' W 123°23'0 0.0
2016-Jun-19 07:31N 46°12' W 123°23'0 0.0
2016-Jun-19 06:31N 46°12' W 123°23'0 0.0
2016-Jun-19 05:31N 46°12' W 123°23'0 0.0
2016-Jun-19 04:31N 46°12' W 123°23'0 0.0
2016-Jun-19 03:31N 46°12' W 123°23'0 0.0
2016-Jun-19 02:31N 46°12' W 123°23'0 0.0
2016-Jun-19 01:25N 46°12' W 123°23'0 0.0
2016-Jun-19 00:30N 46°12' W 123°23'0 0.0
2016-Jun-18 23:25N 46°12' W 123°23'0 0.0
2016-Jun-18 22:31N 46°12' W 123°23'0 0.0
2016-Jun-18 21:31N 46°12' W 123°23'0 0.0
2016-Jun-18 20:25N 46°12' W 123°23'0 0.0
2016-Jun-18 19:25N 46°12' W 123°23'0 0.0
2016-Jun-18 18:29N 46°12' W 123°23'0 0.0
2016-Jun-18 17:31N 46°12' W 123°23'0 0.0
2016-Jun-18 16:25N 46°12' W 123°23'0 0.0
2016-Jun-18 15:33N 46°12' W 123°23'0 0.0
2016-Jun-18 14:31N 46°12' W 123°23'0 0.0
2016-Jun-18 13:33N 46°12' W 123°23'0 0.0
2016-Jun-18 12:29N 46°12' W 123°23'0 0.0
2016-Jun-18 11:33N 46°12' W 123°23'0 0.0
2016-Jun-18 10:31N 46°12' W 123°23'0 0.0
2016-Jun-18 09:31N 46°12' W 123°23'0 0.0
2016-Jun-18 08:30N 46°12' W 123°23'0 0.0
2016-Jun-18 07:31N 46°12' W 123°23'0 0.0
2016-Jun-18 06:31N 46°12' W 123°23'0 0.0
2016-Jun-18 05:27N 46°12' W 123°23'0 0.0
2016-Jun-18 04:31N 46°12' W 123°23'0 0.0
2016-Jun-18 03:31N 46°12' W 123°23'0 0.0
2016-Jun-18 02:31N 46°12' W 123°23'0 0.0
2016-Jun-18 01:33N 46°12' W 123°23'0 0.0
2016-Jun-18 00:31N 46°12' W 123°23'0 0.0
2016-Jun-17 23:31N 46°12' W 123°23'0 0.0
2016-Jun-17 22:25N 46°12' W 123°23'0 0.0
2016-Jun-17 21:25N 46°12' W 123°23'0 0.0
2016-Jun-17 20:31N 46°12' W 123°23'0 0.0
2016-Jun-17 19:33N 46°12' W 123°23'0 0.0
2016-Jun-17 18:31N 46°12' W 123°23'0 0.0
2016-Jun-17 17:26N 46°12' W 123°23'0 0.0
2016-Jun-17 16:25N 46°12' W 123°23'0 0.0
2016-Jun-17 15:29N 46°12' W 123°23'0 0.0
2016-Jun-17 14:31N 46°12' W 123°23'0 0.0
2016-Jun-17 13:31N 46°12' W 123°23'0 0.0
2016-Jun-17 12:25N 46°12' W 123°23'0 0.0
2016-Jun-17 11:31N 46°12' W 123°23'0 0.0
2016-Jun-17 10:32N 46°12' W 123°23'0 0.0
2016-Jun-17 09:31N 46°12' W 123°23'0 0.0
2016-Jun-17 08:19N 46°12' W 123°23'0 0.0
2016-Jun-17 07:31N 46°12' W 123°23'0 0.0
2016-Jun-17 06:31N 46°12' W 123°23'0 0.0
2016-Jun-17 05:31N 46°12' W 123°23'0 0.0
2016-Jun-17 04:31N 46°12' W 123°23'0 0.0
2016-Jun-17 03:31N 46°12' W 123°23'0 0.0
2016-Jun-17 02:31N 46°12' W 123°23'0 0.0
2016-Jun-17 01:33N 46°12' W 123°23'0 0.0
2016-Jun-17 00:25N 46°12' W 123°23'0 0.0
2016-Jun-16 23:25N 46°12' W 123°23'0 0.0
2016-Jun-16 22:30N 46°12' W 123°23'0 0.0
2016-Jun-16 21:26N 46°12' W 123°23'0 0.0
2016-Jun-16 20:32N 46°12' W 123°23'0 0.0
2016-Jun-16 19:31N 46°12' W 123°23'0 0.0
2016-Jun-16 18:32N 46°12' W 123°23'0 0.0
2016-Jun-16 17:33N 46°12' W 123°23'0 0.0
2016-Jun-16 16:30N 46°12' W 123°23'0 0.0
2016-Jun-16 15:31N 46°12' W 123°23'0 0.0
2016-Jun-16 14:30N 46°12' W 123°23'0 0.0
2016-Jun-16 13:31N 46°12' W 123°23'0 0.0
2016-Jun-16 12:31N 46°12' W 123°23'0 0.0
2016-Jun-16 11:33N 46°12' W 123°23'0 0.0
2016-Jun-16 10:32N 46°12' W 123°23'0 0.0
2016-Jun-16 09:31N 46°12' W 123°23'0 0.0
2016-Jun-16 08:31N 46°12' W 123°23'0 0.0
2016-Jun-16 07:31N 46°12' W 123°23'0 0.0
2016-Jun-16 06:32N 46°12' W 123°23'0 0.0
2016-Jun-16 05:31N 46°12' W 123°23'0 0.0
2016-Jun-16 04:31N 46°12' W 123°23'0 0.0
2016-Jun-16 03:31N 46°12' W 123°23'0 0.0
2016-Jun-16 02:31N 46°12' W 123°23'0 0.0
2016-Jun-16 01:31N 46°12' W 123°23'0 0.0
2016-Jun-16 00:32N 46°12' W 123°23'0 0.0
2016-Jun-15 23:31N 46°12' W 123°23'0 0.0
2016-Jun-15 22:31N 46°12' W 123°23'0 0.0
2016-Jun-15 21:31N 46°12' W 123°23'0 0.0
2016-Jun-15 20:25N 46°12' W 123°23'0 0.0
2016-Jun-15 19:25N 46°12' W 123°23'0 0.0
2016-Jun-15 18:31N 46°12' W 123°23'0 0.0
2016-Jun-15 17:31N 46°12' W 123°23'0 0.0
2016-Jun-15 16:25N 46°12' W 123°23'0 0.0
2016-Jun-15 15:28N 46°12' W 123°23'0 0.0
2016-Jun-15 14:32N 46°12' W 123°23'  

Dump ship's entire track history